Weather History for Rockland, ME

Change the Weather History Date:

Saturday, February 9, 2013

  Actual Average Record
Temperature  
Mean Temperature 14 °F -  
Max Temperature 17 °F 30 °F 48 °F (2005)
Min Temperature 12 °F 14 °F 6 °F (2007)
Degree Days  
Heating Degree Days 50    
Moisture  
Dew Point 10 °F    
Average Humidity 83    
Maximum Humidity 100    
Minimum Humidity 63    
Precipitation  
Precipitation 0.00 in - - ()
Sea Level Pressure  
Sea Level Pressure 29.77 in    
Wind  
Wind Speed 21 mph (North)    
Max Wind Speed 32 mph    
Max Gust Speed 50 mph    
Visibility 2 miles    
Events      
Averages and records for this station are not official NWS values.
T = Trace of Precipitation, MM = Missing Value Source: NWS Daily Summary

Daily Weather History Graph

Daily Weather History Graph

Search for Another Location

Airport:

Trip Planner

Search our weather history database for the weather conditions in past years. The results will help you decide how hot, cold, wet, or windy it might be!

Date:

Astronomy

Feb. 09, 2013 Rise Set
Actual Time 6:43 AM EST 4:58 PM EST
Civil Twilight 6:13 AM EST 5:28 PM EST
Nautical Twilight 5:39 AM EST 6:02 PM EST
Astronomical Twilight 5:06 AM EST 6:35 PM EST
Moon 5:52 AM EST (2/9) 4:37 PM EST (2/9)
Length of Visible Light 11h 14m
Length of Day
10h 14m
Waning Crescent, 0% of the Moon is Illuminated
Feb 9
Waning Crescent
Feb 10
New
Feb 17
First Quarter
Feb 25
Full
Mar 4
Last Quarter

Hourly Weather History & Observations

Time (EST) Temp. Windchill Dew Point Humidity Pressure Visibility Wind Dir Wind Speed Gust Speed Precip Events Conditions
12:15 AM 15.8 °F -3.4 °F 12.2 °F 86% 29.85 in 0.5 mi NE 26.5 mph 39.1 mph N/A   Overcast
12:35 AM 15.8 °F -3.7 °F 14.0 °F 93% 29.83 in 0.2 mi NE 27.6 mph 40.3 mph N/A   Overcast
12:55 AM 15.8 °F -3.7 °F 12.2 °F 86% 29.81 in 0.2 mi NNE 27.6 mph 42.6 mph N/A   Overcast
1:15 AM 14.0 °F -6.2 °F 12.2 °F 93% 29.78 in 0.2 mi NNE 27.6 mph 43.7 mph N/A   Overcast
1:35 AM 14.0 °F -7.1 °F 12.2 °F 93% 29.75 in 0.2 mi NNE 31.1 mph 43.7 mph N/A   Overcast
1:55 AM 14.0 °F -5.5 °F 12.2 °F 93% 29.71 in 0.2 mi NNE 25.3 mph 41.4 mph N/A   Overcast
2:15 AM 14.0 °F -5.1 °F 12.2 °F 93% 29.71 in 0.2 mi NNE 24.2 mph 46.0 mph N/A   Overcast
2:35 AM 14.0 °F -7.4 °F 12.2 °F 93% 29.67 in 0.2 mi NNE 32.2 mph 49.5 mph N/A   Overcast
2:55 AM 14.0 °F -4.7 °F 10.4 °F 86% 29.67 in 0.2 mi NNE 23.0 mph 38.0 mph N/A   Overcast
3:35 AM 12.2 °F -6.7 °F 10.4 °F 92% 29.63 in 0.2 mi North 21.9 mph 44.9 mph N/A   Overcast
3:55 AM 12.2 °F -8.2 °F 10.4 °F 92% 29.61 in 0.5 mi NNE 26.5 mph 44.9 mph N/A   Overcast
4:15 AM 12.2 °F -7.5 °F 8.6 °F 85% 29.61 in 0.2 mi NNE 24.2 mph 40.3 mph N/A   Overcast
4:35 AM 12.2 °F -8.2 °F 10.4 °F 92% 29.62 in 0.2 mi NNE 26.5 mph 44.9 mph N/A   Overcast
4:55 AM 12.2 °F -6.3 °F 10.4 °F 92% 29.63 in 0.2 mi North 20.7 mph 40.3 mph N/A   Overcast
5:15 AM 12.2 °F -8.6 °F 10.4 °F 92% 29.62 in 0.2 mi NNE 27.6 mph 44.9 mph N/A   Overcast
5:35 AM 12.2 °F -8.6 °F 8.6 °F 85% 29.61 in 0.2 mi NNE 27.6 mph 41.4 mph N/A   Overcast
5:55 AM 12.2 °F -5.3 °F 12.2 °F 100% 29.61 in 0.2 mi North 18.4 mph 36.8 mph N/A   Overcast
6:15 AM 12.2 °F -7.5 °F 10.4 °F 92% 29.62 in 0.2 mi North 24.2 mph 43.7 mph N/A   Overcast
6:35 AM 12.2 °F -7.1 °F 10.4 °F 92% 29.63 in 0.2 mi NNE 23.0 mph 38.0 mph N/A   Overcast
6:55 AM 12.2 °F -5.8 °F 10.4 °F 92% 29.63 in 0.2 mi NNE 19.6 mph 40.3 mph N/A   Overcast
7:15 AM 12.2 °F -4.3 °F 10.4 °F 92% 29.63 in 0.2 mi NNE 16.1 mph 42.6 mph N/A   Overcast
7:35 AM 12.2 °F -7.1 °F 10.4 °F 92% 29.62 in 0.2 mi NNE 23.0 mph 41.4 mph N/A   Overcast
7:55 AM 12.2 °F -6.7 °F 10.4 °F 92% 29.63 in 0.2 mi NNE 21.9 mph 41.4 mph N/A   Overcast
8:15 AM 12.2 °F -6.3 °F 10.4 °F 92% 29.63 in 0.2 mi North 20.7 mph 40.3 mph N/A   Overcast
8:35 AM 12.2 °F -5.3 °F 10.4 °F 92% 29.64 in 0.2 mi North 18.4 mph 34.5 mph N/A   Overcast
8:55 AM 12.2 °F -5.8 °F 10.4 °F 92% 29.65 in 0.2 mi North 19.6 mph 35.7 mph N/A   Overcast
9:15 AM 12.2 °F -5.3 °F 10.4 °F 92% 29.65 in 0.2 mi North 18.4 mph 38.0 mph N/A   Overcast
9:35 AM 12.2 °F -4.8 °F 10.4 °F 92% 29.66 in 0.2 mi North 17.3 mph 40.3 mph N/A   Overcast
9:55 AM 12.2 °F -5.8 °F 10.4 °F 92% 29.66 in 0.5 mi North 19.6 mph 36.8 mph N/A   Overcast
10:15 AM 12.2 °F -6.3 °F 10.4 °F 92% 29.66 in 0.8 mi North 20.7 mph 33.4 mph N/A   Overcast
10:35 AM 12.2 °F -7.5 °F 8.6 °F 85% 29.67 in 0.5 mi North 24.2 mph 36.8 mph N/A   Overcast
10:55 AM 14.0 °F -2.5 °F 8.6 °F 79% 29.67 in 0.5 mi North 17.3 mph 36.8 mph N/A   Overcast
11:15 AM 14.0 °F -2.0 °F 10.4 °F 86% 29.67 in 0.5 mi NNE 16.1 mph 34.5 mph N/A   Overcast
11:35 AM 14.0 °F -2.0 °F 10.4 °F 86% 29.67 in 0.8 mi North 16.1 mph 33.4 mph N/A   Overcast
11:55 AM 14.0 °F -0.8 °F 10.4 °F 86% 29.67 in 0.5 mi North 13.8 mph 33.4 mph N/A   Overcast
12:15 PM 14.0 °F -3.4 °F 10.4 °F 86% 29.67 in 0.5 mi North 19.6 mph 34.5 mph N/A   Overcast
12:35 PM 15.8 °F 2.1 °F 10.4 °F 79% 29.68 in 0.8 mi North 12.7 mph 31.1 mph N/A   Overcast
12:55 PM 15.8 °F -0.2 °F 10.4 °F 79% 29.69 in 1.0 mi North 17.3 mph 34.5 mph N/A   Overcast
1:15 PM 15.8 °F 1.4 °F 8.6 °F 73% 29.70 in 1.0 mi North 13.8 mph 33.4 mph N/A   Overcast
1:35 PM 15.8 °F 0.3 °F 10.4 °F 79% 29.71 in 0.8 mi North 16.1 mph 36.8 mph N/A   Overcast
1:55 PM 15.8 °F 0.9 °F 12.2 °F 86% 29.72 in 0.5 mi North 15.0 mph 31.1 mph N/A   Overcast
2:15 PM 15.8 °F -0.6 °F 12.2 °F 86% 29.74 in 0.5 mi North 18.4 mph 32.2 mph N/A   Overcast
2:35 PM 15.8 °F 2.1 °F 10.4 °F 79% 29.75 in 0.8 mi North 12.7 mph 36.8 mph N/A   Overcast
2:55 PM 15.8 °F -0.2 °F 10.4 °F 79% 29.78 in 0.8 mi North 17.3 mph 31.1 mph N/A   Overcast
3:15 PM 15.8 °F 0.9 °F 10.4 °F 79% 29.79 in 0.5 mi North 15.0 mph 31.1 mph N/A   Overcast
3:35 PM 15.8 °F 1.4 °F 12.2 °F 86% 29.81 in 0.5 mi North 13.8 mph 34.5 mph N/A   Overcast
3:55 PM 15.8 °F 0.3 °F 12.2 °F 86% 29.83 in 0.2 mi North 16.1 mph 26.5 mph N/A   Overcast
4:15 PM 15.8 °F 0.9 °F 12.2 °F 86% 29.84 in 0.5 mi North 15.0 mph 27.6 mph N/A   Overcast
4:35 PM 15.8 °F 2.1 °F 10.4 °F 79% 29.85 in 1.2 mi North 12.7 mph 27.6 mph N/A   Scattered Clouds
4:55 PM 17.6 °F 3.2 °F 10.4 °F 73% 29.87 in 1.5 mi North 15.0 mph 26.5 mph N/A   Clear
5:15 PM 17.6 °F 7.3 °F 10.4 °F 73% 29.88 in 2.0 mi NW 8.1 mph 25.3 mph N/A   Clear
5:35 PM 15.8 °F 2.1 °F 10.4 °F 79% 29.89 in 3.0 mi NNW 12.7 mph 21.9 mph N/A   Clear
5:55 PM 15.8 °F 0.9 °F 10.4 °F 79% 29.91 in 3.0 mi NNW 15.0 mph 21.9 mph N/A   Clear
6:15 PM 15.8 °F 1.4 °F 10.4 °F 79% 29.92 in 5.0 mi NNW 13.8 mph 26.5 mph N/A   Clear
6:35 PM 15.8 °F 2.7 °F 10.4 °F 79% 29.93 in 4.0 mi NNW 11.5 mph 25.3 mph N/A   Clear
6:55 PM 15.8 °F 2.7 °F 10.4 °F 79% 29.94 in 4.0 mi NNW 11.5 mph 21.9 mph N/A   Clear
7:15 PM 17.6 °F 3.2 °F 10.4 °F 73% 29.94 in 5.0 mi NNW 15.0 mph 25.3 mph N/A   Clear
7:35 PM 17.6 °F 3.7 °F 10.4 °F 73% 29.95 in 7.0 mi NNW 13.8 mph 24.2 mph N/A   Clear
7:55 PM 17.6 °F 5.0 °F 10.4 °F 73% 29.95 in 10.0 mi NNW 11.5 mph 21.9 mph N/A   Clear
8:35 PM 17.6 °F 2.7 °F 8.6 °F 68% 29.97 in 10.0 mi NW 16.1 mph 29.9 mph N/A   Partly Cloudy
8:55 PM 17.6 °F 6.4 °F 8.6 °F 68% 29.98 in 10.0 mi NNW 9.2 mph 20.7 mph N/A   Partly Cloudy
9:15 PM 17.6 °F 2.2 °F 6.8 °F 63% 29.98 in 10.0 mi NW 17.3 mph 27.6 mph N/A   Clear
9:35 PM 17.6 °F 5.7 °F 8.6 °F 68% 29.99 in 10.0 mi NNW 10.4 mph 25.3 mph N/A   Partly Cloudy
9:55 PM 17.6 °F 3.2 °F 8.6 °F 68% 30.00 in 10.0 mi North 15.0 mph 24.2 mph N/A   Partly Cloudy
10:15 PM 17.6 °F 5.7 °F 8.6 °F 68% 30.01 in 10.0 mi NNW 10.4 mph 25.3 mph N/A   Clear
10:35 PM 17.6 °F 5.0 °F 6.8 °F 63% 30.01 in 10.0 mi NNW 11.5 mph 24.2 mph N/A   Clear
10:56 PM 17.6 °F 5.7 °F 6.8 °F 63% 30.02 in 10.0 mi NNW 10.4 mph 24.2 mph N/A   Clear
11:15 PM 17.6 °F 5.7 °F 6.8 °F 63% 30.03 in 10.0 mi NNW 10.4 mph 21.9 mph N/A   Clear
11:35 PM 17.6 °F 3.2 °F 6.8 °F 63% 30.03 in 10.0 mi NW 15.0 mph 25.3 mph N/A   Clear
11:55 PM 17.6 °F 4.3 °F 6.8 °F 63% 30.05 in 10.0 mi NNW 12.7 mph 21.9 mph N/A   Clear